Weather in Zheleznodorozhnoe

Russia / Republic of Crimea     44°43′08″N   33°48′07″E
temp.,
°C
wind,
m/s
gust,
m/s
humid.,
%
clouds,
%
prec.,
mm/h
press.,
hPa
HPBL,
m
28 february, sun
sun2800:00+6nnw5888100 0.1 1019527
03:00+4n4881100 0.1 1020683
06:00+4n4777100 0.1 1020696
09:00+4n4685100 0.3 1021564
12:00+5nnw678299 0.7 1023749
15:00+5nw666790 1.0 10221013
18:00+4nnw577677 0.3 1023840
21:00+3nnw468386 0.6 1024603
1 march, mon
mon100:00+2nne129092 0.2 1025173
03:00+2se119596 0.3 1024134
06:00+2se1194100 0.3 1024112
09:00+2e1283100 0.4 1025274
12:00+5ne2261100 0.0 1026892
15:00+6n3257100 0.1 10261014
18:00+5nne456370 0.0 1027809
21:00+2ne357647 0.0 1029148
2 march, tue
tue200:00+1ne22820 0.0 103027
03:000ne22850 0.0 103038
06:000ene22870 0.0 103023
09:00+2ne12750 0.0 1031220
12:00+4nnw22570 0.0 1031916
15:00+5wnw44610 0.0 1030810
18:00+3wnw446910 0.0 1028751
21:00+2wsw347446 0.0 1027494
3 march, wed
wed300:00+3wsw377887 0.0 1025496
03:00+5wsw5108594 0.0 1023647
06:00+5nw5983100 0.1 1022548
09:00+4n597899 0.1 1024839
12:00+4n6861100 0.1 10251245
15:00+7nnw575288 0.1 10261495
18:00+6nnw365840 0.0 1027359
21:00+3ene126620 0.0 102922
4 march, thu
thu400:00+2sse126736 0.0 102922
03:00+1sse226618 0.0 102822
06:00+1sse22670 0.0 102722
09:00+4sse23660 0.0 1027136
12:00+7wsw34500 0.0 10251055
15:00+8wsw56510 0.0 1024935
18:00+6sw57650 0.0 1022639
21:00+3s36780 0.0 1021160